Location: Lane
(33.5226°N, 79.8788°W)
Time: 22:32:22
(UTC+00:00)

Vanguard 2 Rocket - Pass Details

Date: 12 October 2022
Orbit: 555 x 3321 km, 32.9° (Epoch: 28 November)

Event Time Altitude Azimuth Distance (km) Brightness Sun altitude
Rises 01:13:15 0° 244° (WSW) 7,179 12.2 -30.4°
Reaches altitude 10° 01:17:58 10° 243° (WSW) 6,250 11.7 -31.4°
Maximum altitude 01:38:22 76° 162° (SSE) 3,047 9.2 -35.5°
Enters shadow 01:42:31 60° 100° (E) 3,080 9.0 -36.3°
